Location: Rumah Geringgi
(3.1667°N, 113.1667°E)
Time: 20:16:19
(UTC+00:00)

Ariane H10-3 - Pass Details

Date: 03 August 2024
Orbit: 496 x 36376 km, 4.7° (Epoch: 18 September)

Event Time Altitude Azimuth Distance (km) Brightness Sun altitude
Exits shadow 21:17:01 27° 236° (SW) 1,614 3.1 -17.2°
Maximum altitude 21:19:38 51° 172° (S) 1,509 3.4 -16.6°
Drops below altitude 10° 21:39:22 10° 99° (E) 9,263 8.6 -11.9°
Sets 22:06:39 0° 95° (E) 17,465 10.4 -5.5°
